Gold Country Challenge - Loft Flight - Peregrine chased birds again

Station: Loft Fly - T Race

Distance: 1 Miles    

Release: 23-Nov-2022 07:30

Weather Release: Clear/Cool    Arrival: Clear/Cool

Wind at Release:     Wind at Arrival:

Temp at Release: 48°    Temp at Arrival: °

Lofts: 60

Birds: 130

Clocked: 130

Final Race this Friday. Big peregrine went after birds but did not appear to hit anything
Drops Pos Breeder Pigeon Name Color Sex Team Ent Arrival Speed To Win Elg PdR3 25 10to1R4 50 10to1R5 50 10to1
1 Kereru Whare - CA 0069-AU22-BISH 🐦 MLY H 1 1 08:33:36.70 27.668 00:00:00 Yes
2 Rob Wilson - CA 0342-AU22-AVC RCPD H 1 1 08:33:50.50 27.568 00:00:14 Yes
3 A P C Loft - TX 22042-AU22-APC BB H 1 1 08:33:54.30 27.541 00:00:18 Yes
4 Silicon Valley Syndicate - CA 22123-AU22-SVS BBSP H 1 1 08:33:55.40 27.533 00:00:19 Yes
5 Cain & Page - CA 1575-AU22-FSC BB H 1 1 08:33:56.40 27.526 00:00:20 Yes
6 T M Lofts - CA 2806-AU22-FOYS Marites BC H 1 1 08:34:00.80 27.494 00:00:24 Yes
7 Racing Pigeon Mall - WA 0262-AU22-RPM DC H 1 1 08:34:06.20 27.456 00:00:29 Yes
8 Endo/Wong/Kojiro - HI 0451-IF22-PBM BC H 1 1 08:34:09.40 27.433 00:00:33 Yes
9 Big Game Loft - CA 0728-AU22-EAV BBWF H 1 1 08:34:10.70 27.424 00:00:34 Yes
10 RCManaois Family Loft - NV 0035-AU22-RCML DC H 1 1 08:34:11.50 27.418 00:00:35 Yes
11 Golden Knights Loft - CA 17447-AU22-ARPU Fiona BB H 1 1 08:34:12.20 27.413 00:00:36 Yes
12 Denis Eastwood - CA 39911-AU22-JEDD BCWF H 1 1 08:34:12.40 27.411 00:00:36 Yes
13 BIRDHIGH RANCH - CA 8819-AU22-JEDD BB H 1 1 08:34:17.20 27.377 00:00:41 Yes
14 Sierra Ranch - CA 0142-AU22-SR Ice Cream 🍦 BB H 1 1 08:34:18.00 27.372 00:00:41 Yes
15 Griffin Loft - ID 22200-AU22-RMR BC H 1 1 08:34:20.10 27.357 00:00:43 Yes
16 House Of Paine - CA 0700-AU22-HOP GSF1897xGSF179 BB H 1 1 08:34:22.70 27.338 00:00:46 Yes
17 Mark Skoien - NV 30431-AU22-JEDD BB H 1 1 08:34:29.10 27.293 00:00:52 Yes
18 Portland Loft - OR 4196-AU22-PNW BB H 1 1 08:34:33.90 27.259 00:00:57 Yes
19 Bob Rapp - NV 31311-AU22-JEDD BB H 1 1 08:34:34.40 27.256 00:00:58 Yes
20 Jim Lauritzen - CA 0608-AU22-EAV BC H 1 1 08:34:37.90 27.231 00:01:01 Yes
21 Kereru Whare - CA 0027-AU22-BISH 🐦 MLY H 1 2 08:34:39.10 27.223 00:01:02 Yes
22 Stark Loft - CA 71222-AU22-ARPU MLY H 1 1 08:34:39.60 27.219 00:01:03 Yes
23 Sugaronni Loft - CA 1009-AU22-FMT BB H 1 1 08:34:41.00 27.209 00:01:04 Yes
24 Watson & Williams - NV 18313-AU22-JEDD BB H 1 1 08:34:48.10 27.160 00:01:11 Yes
25 RCManaois Family Loft - NV 0017-AU22-RCML BBT H 1 2 08:34:55.20 27.110 00:01:19 Yes
26 Sierra Ranch - CA 0120-AU22-SR Jonny be good🏆 BB H 1 2 08:34:57.30 27.096 00:01:21 Yes
27 Skychargers - CA 0155-AU22-CORO BB H 1 1 08:34:58.40 27.088 00:01:22 Yes
28 Skychargers - CA 8818-AU22-JEDD BBWF H 1 2 08:34:59.90 27.078 00:01:23 Yes
29 G & J Lofts - CA 0146-AU22-GJ Necco BBWF H 1 1 08:35:01.20 27.069 00:01:24 Yes
30 Kern Flyers - CA 2001-AU22-JEDD BB H 1 1 08:35:04.90 27.043 00:01:28 Yes
31 Big Game Loft - CA 0796-AU22-EAV BB H 1 2 08:35:06.00 27.035 00:01:29 Yes
32 Portland Loft - OR 4102-AU22-PNW BB H 1 2 08:35:07.00 27.028 00:01:30 Yes
32 Denis Eastwood - CA 39902-AU22-JEDD BB H 1 2 08:35:07.00 27.028 00:01:30 Yes
34 Spoiled Sa Amo - CA 0020-AU22-POP DC H 1 1 08:35:07.80 27.023 00:01:31 Yes
35 Blue Sierra - NE 1005-AU22-SR BCWF H 1 1 08:35:08.70 27.017 00:01:32 Yes
36 Bieche Lofts - CA 2016-AU22-BIE ` DC H 1 1 08:35:09.20 27.013 00:01:33 Yes
37 R & D Racing 2 - ON 18906-AU22-JEDD BB H 1 1 08:35:10.20 27.006 00:01:34 Yes
38 B S Lofts - CA 0205-AU22-BSL 237&926-1 BBWF H 1 1 08:35:10.50 27.004 00:01:34 Yes
39 Golden Knights Loft - CA 17452-AU22-ARPU Ariana BC H 1 2 08:35:10.90 27.001 00:01:34 Yes
39 Blue Sierra - NE 0107-AU22-SR BB H 1 2 08:35:10.90 27.001 00:01:34 Yes
41 Ryan Austin - CA 39921-AU22-JEDD BBPD H 1 1 08:35:12.50 26.990 00:01:36 Yes
42 Goshentown Lofts - TN 11315-AU22-NASH BBWF H 1 1 08:35:14.80 26.975 00:01:38 Yes
43 Bieche Lofts - CA 2014-AU22-BIE BC H 1 2 08:35:16.70 26.961 00:01:40 Yes
44 Genesis Syndicate Loft - AZ 0646-AU22-GENS SLPD H 1 1 08:35:19.10 26.945 00:01:42 Yes
45 Skychargers - CA 0154-AU22-CORO BB H 1 3 08:35:19.60 26.942 00:01:43 Yes
46 Aimhigh Loft - CA 0024-AU22-CHIM Just Wink It BB H 1 1 08:35:20.80 26.933 00:01:44 Yes
47 Fleet Washington - DC 2239-AU22-FLTW BB H 1 1 08:35:22.40 26.922 00:01:46 Yes
48 Sparks Trio Syn - NV 2312-AU22-RENO Kayla BBWF H 1 1 08:35:23.00 26.918 00:01:46 Yes
49 Osty Loft - CA 2224-AU22-STAR 💖GLORIA💖 BC H 1 1 08:35:23.40 26.915 00:01:47 Yes
49 Tim Brandon - CA 22101-AU22-SNV BB H 1 1 08:35:23.40 26.915 00:01:47 Yes
51 Marengo Creek Farms - GA 4111-AU22-MCF BB H 1 1 08:35:23.80 26.913 00:01:47 Yes
51 Racing Pigeon Mall - WA 0213-AU22-RPM BB H 1 2 08:35:23.80 26.913 00:01:47 Yes
53 Aimhigh Loft - CA 0086-AU22-CHIM Graceful Family BB H 1 2 08:35:24.80 26.906 00:01:48 Yes
54 T R P Loft - CA 20914-AU22-MAN Faboryte BC H 1 1 08:35:25.30 26.902 00:01:49 Yes
55 Jacks Loft - NV 19535-AU22-JEDD BC H 1 1 08:35:25.90 26.898 00:01:49 Yes
56 BIRDHIGH RANCH - CA 8852-AU22-JEDD BC H 1 2 08:35:28.20 26.883 00:01:51 Yes
57 Skychargers - CA 8828-AU22-JEDD BC H 1 4 08:35:29.80 26.872 00:01:53 Yes
58 Sierraminis - CA 0106-AU22-SR Pony 🐎 BBWF H 1 1 08:35:31.70 26.859 00:01:55 Yes
59 Marengo Creek Farms - GA 4151-AU22-MCF BC H 1 2 08:35:32.80 26.851 00:01:56 Yes
60 BIRDHIGH RANCH - CA 8801-AU22-JEDD BB H 1 3 08:35:33.20 26.848 00:01:57 Yes
60 Blue Sierra - NE 0018-AU22-GGRO DC H 1 3 08:35:33.30 26.848 00:01:57 Yes
62 Denis Eastwood - CA 39909-AU22-JEDD BB H 1 3 08:35:34.40 26.840 00:01:58 Yes
63 John & Omelio - NM 50923-AU22-ARPU BC H 1 1 08:35:35.00 26.836 00:01:58 Yes
64 Kereru Whare - CA 0001-AU22-BISH 🐦 RCPD H 1 3 08:35:36.80 26.824 00:02:00 Yes
65 Sparks Trio Syn - NV 2305-AU22-RENO Kathy BC H 1 2 08:35:37.70 26.818 00:02:01 Yes
66 Denis Eastwood - CA 39906-AU22-JEDD BBWF H 1 4 08:35:40.10 26.801 00:02:03 Yes
67 Mark Skoien - NV 30430-AU22-JEDD . BBPD H 1 2 08:35:42.30 26.786 00:02:06 Yes
68 Endo/Wong/Kojiro - HI 0007-AU22-PONO BB H 1 2 08:35:43.20 26.780 00:02:07 Yes
69 Bieche Lofts - CA 2004-AU22-BIE BB H 1 3 08:35:44.40 26.772 00:02:08 Yes
70 Stark Loft - CA 71202-AU22-ARPU BB H 1 2 08:35:46.20 26.760 00:02:10 Yes
71 John & Omelio - NM 22165-AU22-NMRP BB H 1 2 08:35:46.80 26.756 00:02:10 Yes
72 Erwin Racing Loft - CA 0403-AU22-BON BB H 1 1 08:35:52.50 26.717 00:02:16 Yes
72 Kereru Whare - CA 0041-AU22-BISH 🐦 MLY H 1 4 08:35:52.50 26.717 00:02:16 Yes
74 RCManaois Family Loft - NV 0010-AU22-RCML BC H 1 3 08:35:53.50 26.711 00:02:17 Yes
75 A P C Loft - TX 22017-AU22-APC BB H 1 2 08:35:54.40 26.704 00:02:18 Yes
76 Nanez Family Loft - WI 7033-AU22-NFL BBSP H 1 1 08:35:54.90 26.701 00:02:18 Yes
77 Silicon Valley Syndicate - CA 22119-AU22-SVS DC H 1 2 08:35:55.50 26.697 00:02:19 Yes
78 Stark Loft - CA 71201-AU22-ARPU BB H 1 3 08:35:56.00 26.694 00:02:19 Yes
79 Spoiled Sa Amo - CA 0098-AU22-POP PIED H 1 2 08:36:01.90 26.654 00:02:25 Yes
80 Ryan Austin - CA 39920-AU22-JEDD BBPD H 1 2 08:36:03.60 26.642 00:02:27 Yes
81 Ruybal Family Loft - CO 2265-AU22-RUYB BBWF H 1 1 08:36:05.00 26.633 00:02:28 Yes
82 A P C Loft - TX 22010-AU22-APC BB H 1 3 08:36:05.60 26.629 00:02:29 Yes
83 Bob Rapp - NV 31310-AU22-JEDD BB H 1 2 08:36:06.90 26.620 00:02:30 Yes
84 Rueter Family Loft - OR 1107-AU22-CORP BB H 1 1 08:36:07.40 26.617 00:02:31 Yes
85 Kereru Whare - CA 0057-AU22-BISH 🐦 MLY H 1 5 08:36:08.30 26.611 00:02:32 Yes
86 John V Partridge - CA 1011-AU22-PASO Stevie Wonder BC H 1 1 08:36:09.00 26.606 00:02:32 Yes
87 Skychargers - CA 0164-AU22-CORO BCPD H 1 5 08:36:09.50 26.603 00:02:33 Yes
88 Bluesky Loft - ON 1605-CU22-YRI BC H 1 1 08:36:09.80 26.601 00:02:33 Yes
89 Skychargers - CA 8844-AU22-JEDD DC H 1 6 08:36:13.90 26.573 00:02:37 Yes
90 Jacks Loft - NV 19534-AU22-JEDD BC H 1 2 08:36:14.30 26.571 00:02:38 Yes
91 Sierraminis - CA 1063-AU22-SR Bounder DC H 1 2 08:36:16.00 26.559 00:02:39 Yes
92 Marengo Creek Farms - GA 4109-AU22-MCF BB H 1 3 08:36:17.10 26.552 00:02:40 Yes
93 Fleet Washington - DC 2265-AU22-FLTW BB H 1 2 08:36:17.60 26.549 00:02:41 Yes
94 Bieche Lofts - CA 2009-AU22-BIE RC H 1 4 08:36:20.00 26.533 00:02:43 Yes
95 Watson & Williams - NV 18318-AU22-JEDD DC H 1 2 08:36:23.00 26.513 00:02:46 Yes
96 Scm Lofts - CA 19528-AU22-JEDD BB H 1 1 08:36:27.20 26.485 00:02:50 Yes
97 Sugaronni Loft - CA 1049-AU22-FMT BB H 1 2 08:36:28.30 26.477 00:02:52 Yes
98 D B Loft - CA 0501-AU22-JEDD Levi BC H 1 1 08:36:29.70 26.468 00:02:53 Yes
99 Christopher Loft - UT 0156-AU22-GS BCSP H 1 1 08:36:30.00 26.466 00:02:53 Yes
100 Watson & Williams - NV 18314-AU22-JEDD BBSP H 1 3 08:36:32.70 26.448 00:02:56 Yes

There are 130 bird records

Note: These Race Results are unofficial and subject to change until verified by the Race Committee and declared final.